カタログに戻る

STARLINK-35329

運用中通信VLEO
NORAD 65908·PAYLOAD·🇺🇸 United States

打ち上げ Oct 7, 2025 から Cape Canaveral Space Force Station

Loading…

次のパス (今後24時間)

TLE

最新Source: CelesTrak SupGP

元期: Sep 14, 2026, 20:45 UTC

1 65908C 25224AC  26257.86506944  .00032906  00000+0  97203-3 0  2577
2 65908  53.1577 208.3536 0001499  97.2277  72.4555 15.34379433    13

AllMySatでSTARLINK-35329をリアルタイム追跡

Download on the App Store